User: anonymous   Login
Location: Unspecified
(0.0000°N, 0.0000°E)
Time: 03:34:16
(UTC+00:00)
Language:

USA 78 - Orbit

View from above orbital plane
View from above orbital plane
View from above satellite
View from above satellite

Ground track
Ground track

The orbit data is extracted from the following two-line orbital elements,

1 21873U 92006A   17314.11654149 0.00000000  00000-0  00000-0 0    08
2 21873  13.5092  27.8694 0008936 275.6234  84.2868  0.99038963    07
Epoch (UTC): 10 November 2017 02:47:49
Eccentricity: 0.0008936
inclination: 13.5092°
perigee height: 36097 km
apogee height: 36173 km
right ascension of ascending node: 27.8694°
argument of perigee: 275.6234°
revolutions per day: 0.99038963
mean anomaly at epoch: 84.2868°
orbit number at epoch: 0

The dashed part of the orbit path shows where the satellite is in the earth's shadow,  

DLR